Simultaneous Nadir Overpasses (SNOs) Predictions

Prediction of SNOs between LANDSAT-8 and NOAA-19 Satellite Orbit:

Table of predicted SNOs for the next 14.0 days since TLE Epoch: 9/23/2023
Index Date (LANDSAT-8) Time (LANDSAT-8) Lat,Lon (LANDSAT-8) SZA (LANDSAT-8 ) Date (NOAA-19) Time (NOAA-19) Lat,Lon (NOAA-19) SZA (NOAA-19 ) Distance(km) Time Diff (sec)
1 09/25/2023 03:55:20 -80.93, -21.63 96.33 09/25/2023 03:54:24 -80.93, -21.50 96.34 2.35 56
2 09/25/2023 04:44:46 80.93, 146.09 83.70 09/25/2023 04:45:18 80.93, 146.21 83.73 1.99 32
3 09/27/2023 10:18:32 -80.92,-117.49 95.44 09/27/2023 10:17:45 -80.92,-117.31 95.44 3.15 47
4 09/27/2023 11:07:58 80.93, 50.21 84.59 09/27/2023 11:08:40 80.93, 50.15 84.60 1.10 42
5 09/29/2023 16:41:43 -80.93, 146.84 94.53 09/29/2023 16:41:06 -80.92, 146.78 94.55 1.35 37
6 09/29/2023 17:31:09 80.93, -45.48 85.50 09/29/2023 17:32:01 80.93, -45.61 85.50 2.34 52
7 10/01/2023 23:04:54 -80.93, 51.01 93.64 10/01/2023 23:04:26 -80.93, 51.16 93.64 2.80 28
8 10/01/2023 23:54:20 80.93,-141.34 86.38 10/01/2023 23:55:22 80.93,-141.44 86.40 1.82 62
9 10/04/2023 05:28:05 -80.91, -44.98 92.78 10/04/2023 05:27:47 -80.92, -44.92 92.78 1.42 18
10 10/04/2023 06:17:31 80.91, 122.66 87.24 10/04/2023 06:18:43 80.93, 122.66 87.28 1.24 72



Historial Predications of SNOs between LANDSAT-8 and NOAA-19
